Regional Weather Roundup
Issued by NWS

Home | Current Version | Previous Version | Graphics & Text | Print | Product List | Glossary On
Versions: 1 2 3 4 5 6 7 8 9 10 11 12 13 14 15 16 17 18 19 20 21 22 23 24 25 26 27 28 29 30 31 32 33 34 35 36 37 38 39 40 41 42 43 44 45 46 47 48 49 50
000
ASUS43 KFSD 211410
RWRSD

WEATHER ROUNDUP FOR SOUTH DAKOTA
NATIONAL WEATHER SERVICE SIOUX FALLS SD
900 AM CDT FRI JUL 21 2017

NOTE: "FAIR" INDICATES FEW OR NO CLOUDS BELOW 12,000 FEET WITH NO
SIGNIFICANT WEATHER AND/OR OBSTRUCTIONS TO VISIBILITY.


SDZ001>005-009-010-012>017-211500-
NORTHWEST AND NORTH CENTRAL SOUTH DAKOTA

CITY           SKY/WX    TMP DP  RH WIND       PRES   REMARKS
BUFFALO          N/A     72  66  81 S14       29.81S
FAITH            N/A     70  70 100 S16       29.84S
MOBRIDGE       MOSUNNY   76  66  71 S8        29.78R
$$

SDZ012>016-024>037-041>051-057-063-072>074-211500-
SOUTHWEST AND SOUTH CENTRAL SOUTH DAKOTA

CITY           SKY/WX    TMP DP  RH WIND       PRES   REMARKS
RAPID CTY ARPT CLOUDY    69  65  86 SE3       29.89S
PIERRE         NOT AVBL
CUSTER         CLOUDY    67  55  65 W3        30.03F
ELLSWORTH AFB  CLOUDY    69  68  97 SW8       29.88F
PHILIP         SUNNY     75  70  84 SW13      29.82F
PINE RIDGE     MOSUNNY   69  67  93 SW7       29.93R
SPEARFISH      FAIR      73  61  64 NW6       29.93S
WINNER         FAIR      75  70  84 W5        29.80R
$$

SDZ004>011-016>023-039-040-211500-
NORTHEAST SOUTH DAKOTA

CITY           SKY/WX    TMP DP  RH WIND       PRES   REMARKS
ABERDEEN       CLOUDY    77  72  84 N7        29.80R
WATERTOWN      CLOUDY    73  70  90 CALM      29.81F
BROOKINGS      LGT RAIN  72  69  90 E16G23    29.82F
SISSETON         N/A     72  71  97 S6        29.79F
$$

SDZ017-020-022-023-036>040-048>070-211500-
SOUTHEAST SOUTH DAKOTA

CITY           SKY/WX    TMP DP  RH WIND       PRES   REMARKS
SIOUX FALLS    CLOUDY    72  71  97 NE13      29.84R
HURON          PTSUNNY   74  71  91 SE13      29.76F
CHAMBERLAIN    CLOUDY    76  75  95 CALM      29.80R
MITCHELL       LGT RAIN  75  72  90 E8        29.76F
YANKTON        CLOUDY    73  70  90 E5        29.83R
$$

ABBREVIATIONS USED IN REMARKS
   TC - TEMPERATURE IN CELSIUS
  WCI - WIND CHILL INDEX
   HX - HEAT INDEX
  VSB - VISIBILITY




USA.gov is the U.S. government's official web portal to all federal, state and local government web resources and services.